Погода в Пайтуге

Узбекистан     40˚53′46″N   72˚14′54″E
темп.,
°C
ветер,
м/с
пор.,
м/с
влажн.,
%
обл.,
%
осадки,
мм/ч
давл.,
гПа
погр.,
м
16 января, сб
сб1623:00+4˚всв12600 0.0 102022
02:00+3˚всв12550 0.0 102022
05:00+3˚всв22530 0.0 102022
08:00+3˚всв22490 0.0 102222
11:00+9˚в12320 0.0 1021227
14:00+12˚ююв11260 0.0 1020393
17:00+8˚юз11370 0.0 102122
20:00+5˚в23470 0.0 102328
17 января, вс
вс1723:00+4˚всв23435 0.0 102328
02:00+3˚всв22440 0.0 102227
05:00+2˚всв22440 0.0 102122
08:00+2˚св22410 0.0 102123
11:00+8˚ююв11270 0.0 1018232
14:00+10˚ю112333 0.0 1014422
17:00+7˚юз013367 0.0 101322
20:00+5˚в2240100 0.0 101333
18 января, пн
пн1823:00+3˚в224098 0.0 101225
02:00+3˚всв2239100 0.0 101222
05:00+2˚всв2238100 0.0 101222
08:00+2˚всв1136100 0.0 101422
11:00+7˚в1226100 0.0 1014179
14:00+10˚ю1122100 0.0 1012266
17:00+6˚зюз1134100 0.0 101422
20:00+5˚ююз1138100 0.0 101722
19 января, вт
вт1923:00+4˚всв2341100 0.0 101724
02:00+4˚св1242100 0.0 101822
05:00+5˚ссв2234100 0.0 101823
08:00+3˚вюв0142100 0.0 102022
11:00+8˚ссв1129100 0.0 1019162
14:00+10˚ююв2232100 0.0 1019217
17:00+8˚с1240100 0.0 102022
20:00+7˚з1239100 0.0 102323
20 января, ср
ср2023:00+6˚св2243100 0.0 102422
02:00+5˚с1253100 0.1 102532
05:00+5˚ссв236792 0.2 102625
08:00+5˚ссв33710 0.0 102737
11:00+11˚ссв12470 0.0 1024369
14:00+14˚ссз233862 0.0 1020725
17:00+10˚с344772 0.0 102085
20:00+7˚в235584 0.0 102136